XM-1

operational
NORAD ID: 26761 Int'l Des: 2001-018 Owner: XMR Country: US
HEOCIRCULAR

About XM-1

Description loading...

Live Position

Loading 3D Globe...

Upcoming Passes

Altitude History

Altitude vs Time

uPlot chart will show altitude changes over time

Two-Line Element Set

1 26761U 01018A 26062.06169034 .00000051 00000-0 00000+0 0 9992
2 26761 8.5837 62.8845 0012367 288.9704 61.7772 0.99003636 45066
Epoch: Mar 3, 2026 • Age: 8 hours

Current Status

Altitude 36195.7 km
Velocity 3.06 km/s
Sub-Earth Point 8.57°N, 130.64°W
Launch Date May 8, 2001
Age 24.8 years
Type other

Technical Details

Classification Payload
Mass 4667.00 kg
Dry Mass 2500.00 kg
Total Mass 4667.00 kg
Length 7.00 m
Diameter 3.30 m
Span 40.40 m
Shape Box + 2 Pan
Manufacturer BOES
Bus Type BSS-702HP
Phase Status In Orbit
Owner/State XMR/US

Large Constellations

Loading constellations...